Terminal Aerodrome Forecast
Issued by NWS Sioux Falls, SD

Home | Current Version | Previous Version | Graphics & Text | Print | Product List | Glossary Off
Versions: 1 2 3 4 5 6 7 8 9 10 11 12 13 14

000
FTUS43 KFSD 191720
TAFHON
TAF
KHON 191720Z 1918/2018 07012G19KT P6SM OVC110
     FM200300 06007KT P6SM OVC070
     FM200700 03007KT P6SM OVC060
     FM200900 02009KT P6SM -SHRA OVC030
     FM201200 01008KT P6SM SHRA OVC015
     FM201600 01012KT 3SM SHRA OVC010=

USA.gov is the U.S. government's official web portal to all federal, state and local government web resources and services.